DW0882 Weather Reports


Display with metric or nautical units.
time (UTC)temp
F
wind
direction
speed
MPH
gust
MPH
rain 1hr
in
rain 24hr
in
rain mn
in
humidity
%
barometer
mb
20200707101832 56 218 0.0 0.0 0.00 0.00 0.00 82 1016.6
20200707100332 56 142 0.0 0.0 0.00 0.00 0.00 82 1016.8
20200707094838 56 185 0.0 0.0 0.00 0.00 0.00 81 1016.7
20200707093338 57 141 0.0 0.0 0.00 0.00 0.00 81 1016.8
20200707090346 57 194 0.0 0.0 0.00 0.00 0.00 79 1016.9
20200707084846 57 263 0.0 0.0 0.00 0.00 0.00 78 1016.9
20200707083330 57 263 0.0 0.0 0.00 0.00 0.00 78 1017.0
20200707081832 58 262 0.0 0.0 0.00 0.00 0.00 78 1016.9
20200707080335 58 262 0.0 0.0 0.00 0.00 0.00 79 1016.9
20200707074838 58 261 0.0 0.0 0.00 0.00 0.00 79 1016.7
20200707073339 58 261 0.0 0.0 0.00 0.00 0.00 79 1016.7
20200707071842 58 261 0.0 0.0 0.00 0.00 0.00 79 1016.7
20200707070342 58 306 0.0 0.0 0.00 0.00 0.00 78 1016.6
20200707064843 59 319 0.0 0.0 0.00 0.00 0.00 78 1016.7
20200707063344 59 320 0.0 0.0 0.00 0.00 0.00 78 1016.6
20200707061829 59 261 0.0 0.0 0.00 0.00 0.00 78 1016.5
20200707060333 60 261 0.0 0.0 0.00 0.00 0.00 77 1016.4
20200707054832 60 261 0.0 0.0 0.00 0.00 0.00 75 1016.4
20200707053336 60 294 0.0 0.0 0.00 0.00 0.00 75 1016.5
20200707051839 61 252 0.0 0.0 0.00 0.00 0.00 75 1016.5
20200707050338 61 253 0.0 0.0 0.00 0.00 0.00 75 1016.4
20200707044842 61 279 0.0 0.0 0.00 0.00 0.00 74 1016.3
20200707043342 62 279 0.0 0.0 0.00 0.00 0.00 73 1016.1
20200707041844 62 275 0.0 0.0 0.00 0.00 0.00 73 1016.0
20200707040349 63 274 0.0 0.0 0.00 0.00 0.00 72 1016.0
20200707034848 63 250 0.0 0.0 0.00 0.00 0.00 71 1015.9
20200707033333 64 226 0.0 0.0 0.00 0.00 0.00 70 1015.8
20200707031836 64 309 0.0 1.0 0.00 0.00 0.00 69 1015.7
20200707030341 65 225 0.0 1.0 0.00 0.00 0.00 69 1015.6
20200707024842 65 227 0.0 1.0 0.00 0.00 0.00 68 1015.5
20200707023343 65 211 0.0 1.0 0.00 0.00 0.00 69 1015.5
20200707021829 66 281 0.0 1.0 0.00 0.00 0.00 70 1015.4
20200707020330 66 333 0.0 1.0 0.00 0.00 0.00 71 1015.4
20200707014833 66 292 0.0 1.0 0.00 0.00 0.00 68 1015.5
20200707013342 66 164 0.0 1.0 0.00 0.00 0.00 69 1015.5
20200707011840 67 215 0.0 2.0 0.00 0.00 0.00 69 1015.6
20200707010349 67 277 0.0 1.0 0.00 0.00 0.00 71 1015.6
20200707004846 67 304 0.0 1.0 0.00 0.00 0.00 69 1015.7
20200707003347 67 260 0.0 1.0 0.00 0.00 0.00 70 1015.8
20200707001830 67 306 0.0 1.0 0.00 0.00 0.00 68 1015.9
20200707000348 67 311 0.0 1.0 0.00 0.00 0.00 69 1015.8
20200706234832 67 318 0.0 1.0 0.00 0.00 0.00 68 1015.8
20200706233333 67 315 0.0 1.0 0.00 0.00 0.00 69 1015.9
20200706231833 67 334 0.0 1.0 0.00 0.00 0.00 69 1015.9
20200706230344 68 279 0.0 1.0 0.00 0.00 0.00 71 1016.1
20200706224843 67 292 0.0 1.0 0.00 0.00 0.00 68 1016.3
20200706223348 67 269 0.0 1.0 0.00 0.00 0.00 66 1016.4
20200706221827 68 298 0.0 1.0 0.00 0.00 0.00 70 1016.4
20200706220349 67 225 0.0 0.0 0.00 0.00 0.00 69 1016.5
20200706214834 66 266 0.0 1.0 0.00 0.00 0.00 71 1016.7
20200706213334 67 319 0.0 3.0 0.00 0.00 0.00 69 1016.7
20200706211838 67 337 0.0 7.0 0.00 0.00 0.00 69 1016.7
20200706210340 70 293 0.0 1.0 0.00 0.00 0.00 67 1016.7
20200706204838 70 288 0.0 2.0 0.00 0.00 0.00 67 1016.7
20200706203342 68 312 0.0 1.0 0.00 0.00 0.00 69 1017.0
20200706201842 69 311 0.0 1.0 0.00 0.00 0.00 67 1017.0
20200706200341 68 298 0.0 1.0 0.00 0.00 0.00 70 1017.0
20200706194844 70 331 0.0 1.0 0.00 0.00 0.00 66 1017.1
20200706193348 69 304 0.0 1.0 0.00 0.00 0.00 71 1017.2
20200706191828 68 318 0.0 7.0 0.00 0.00 0.00 71 1017.4
20200706190334 68 317 0.0 9.0 0.00 0.00 0.00 72 1017.4
20200706184834 68 355 1.0 2.0 0.00 0.00 0.00 72 1017.5
20200706183337 67 286 0.0 2.0 0.00 0.00 0.00 73 1017.6
20200706181841 67 310 0.0 1.0 0.00 0.00 0.00 76 1017.5
20200706180345 67 336 0.0 1.0 0.00 0.00 0.00 74 1017.7
20200706174844 65 317 0.0 1.0 0.00 0.00 0.00 71 1017.7
20200706173345 62 305 0.0 1.0 0.00 0.00 0.00 79 1017.9
20200706171830 64 300 0.0 0.0 0.00 0.00 0.00 80 1018.0
20200706170335 66 288 0.0 0.0 0.00 0.00 0.00 76 1018.1
20200706164842 63 292 0.0 0.0 0.00 0.00 0.00 84 1018.1
20200706163344 60 278 0.0 0.0 0.00 0.00 0.00 85 1018.1
20200706161845 59 298 0.0 0.0 0.00 0.00 0.00 88 1018.1
20200706160333 59 109 0.0 0.0 0.00 0.00 0.00 81 1018.1
20200706154832 58 115 0.0 0.0 0.00 0.00 0.00 82 1018.1
20200706153338 57 119 0.0 0.0 0.00 0.00 0.00 86 1018.1
20200706151840 56 138 0.0 0.0 0.00 0.00 0.00 86 1018.1
20200706150342 55 150 0.0 0.0 0.00 0.00 0.00 88 1018.0
20200706144846 55 130 0.0 0.0 0.00 0.00 0.00 89 1018.1
20200706143347 54 130 0.0 1.0 0.00 0.00 0.00 90 1018.0
20200706141831 54 130 0.0 0.0 0.00 0.00 0.00 90 1018.0
20200706140334 54 130 0.0 0.0 0.00 0.00 0.00 91 1018.1